Regional Weather Roundup
Issued by NWS

Home | Current Version | Previous Version | Text Only | Print | Product List | Glossary Off
Versions: 1 2 3 4 5 6 7 8 9 10 11 12 13 14 15 16 17 18 19 20 21 22 23 24 25 26 27 28

000
ASUS45 KBOU 200610
RWRCO

WEATHER ROUNDUP FOR COLORADO
NATIONAL WEATHER SERVICE DENVER/BOULDER CO
1100 PM MST SUN NOV 19 2017

NOTE: "FAIR" INDICATES FEW OR NO CLOUDS BELOW 12000 FEET WITH NO
SIGNIFICANT WEATHER AND/OR OBSTRUCTIONS TO VISIBILITY.

COZ001>005-013-030-031-200700-
...NORTHWEST COLORADO...

CITY           SKY/WX    TMP DP  RH WIND       PRES   REMARKS
CRAIG          FAIR      17  12  80 SW5       30.14S WCI  10
HAYDEN         FAIR      24  16  71 E13       30.14F WCI  12
MEEKER         FAIR      24  16  71 NE6       30.15F WCI  17
RABBIT EARS PA FAIR      19   7  58 W9G18     30.14F WCI   9
STEAMBOAT SPGS FAIR      18  14  84 CALM      30.14F
WALDEN         FAIR      30   5  34 S14       30.10F WCI  20
$$

COZ006>008-011-200700-
...WEST CENTRAL VALLEYS...

CITY           SKY/WX    TMP DP  RH WIND       PRES   REMARKS
GRAND JUNCTION FAIR      29  16  58 E7        30.21F WCI  22
MONTROSE       FAIR      24  19  81 S3        30.25F
EAGLE          FAIR      22  16  78 N3        30.22F
RIFLE          FAIR      25  18  74 CALM      30.22F
DELTA          FAIR      28  16  59 NE7       30.23F WCI  21
NUCLA          FAIR      30   7  37 E6        30.24F WCI  24
$$

COZ017>023-064>068-200700-
...SOUTHWEST COLORADO...

CITY           SKY/WX    TMP DP  RH WIND       PRES   REMARKS
DURANGO        FAIR      17  11  77 N6        30.20F WCI   9
CORTEZ         FAIR      16   9  74 E6        30.21F WCI   7
PAGOSA SPRINGS FAIR      24  13  63 CALM      30.24S
TELLURIDE      FAIR      27   4  38 SE7       30.26F WCI  19
WOLF CREEK PAS FAIR      23   7  50 SW12      30.34S WCI  12
$$

COZ009-010-012-014-032>034-037-058>063-200700-
...CENTRAL COLORADO...

CITY           SKY/WX    TMP DP  RH WIND       PRES   REMARKS
ASPEN          FAIR      21  12  68 S9        30.20F WCI  11
BUENA VISTA    FAIR      32   5  32 NW8       30.17R WCI  24
COPPER MTN     FAIR      25 -13  18 MISG      30.24R
BERTHOUD PASS  FAIR      18   5  57 NW43G53   30.14R WCI  -5
COTTONWOOD PAS FAIR      36 -18   9 NW12G20   30.18S
GUNNISON       FAIR      14  10  84 CALM      30.28F
KREMMLING      FAIR      23  16  74 CALM      30.17F
LEADVILLE      FAIR      19  -2  39 NE5       30.20R WCI  12
MONARCH PASS   FAIR      19   0  42 W24       30.34R WCI   2
SALIDA         FAIR      30   7  38 NW7       30.23S WCI  23
SUNLIGHT       FAIR      21  -4  33 SW16G22   30.25F WCI   7
WILKERSON PASS FAIR      25  -8  24 W13G23    30.17F WCI  13
$$

COZ069>075-200700-
...SAN LUIS VALLEY/SANGRE DE CRISTO MOUNTAINS...

CITY           SKY/WX    TMP DP  RH WIND       PRES   REMARKS
ALAMOSA        FAIR      19   9  65 NW3       30.20R
DEL NORTE      FAIR      26   8  45 CALM      30.22R
LA VETA PASS   FAIR      28   1  31 SW31G39     N/A  WCI  12
SAGUACHE       FAIR      21   3  45 CALM      30.22R
$$

COZ035-036-038>040-200700-
...NORTHERN COLORADO FRONT RANGE...

CITY           SKY/WX    TMP DP  RH WIND       PRES   REMARKS
DENVER INTL AP FAIR      44   6  21 SW15      29.94F
DMNS CITY PARK   N/A     42   6  23 E7        29.96S
AURORA         PTCLDY    40   7  25 S8        29.97F
FRONT RANGE AP FAIR      42  12  29 S10       29.96S
ERIE MUNI ARPT FAIR      36   3  24 SE8       29.98F
BOULDER MUN AP FAIR      45   3  18 E7        29.91F
CENTENNIAL     FAIR      39   8  27 SW12      29.97R
BROOMFIELD     FAIR      48  -2  12 W7        29.95F
FORT COLLINS   FAIR      34  17  50 VRB3      29.91F
LONGMONT       FAIR      36  11  35 CALM      29.94F
$$

COZ041-046-047-076>085-087-088-200700-
...PIKES PEAK/PALMER DIVIDE AND SOUTHERN FOOTHILLS...

CITY           SKY/WX    TMP DP  RH WIND       PRES   REMARKS
COLO. SPRINGS  FAIR      45   4  18 N5        30.00S
A. F. ACADEMY  FAIR      49 -12   7 NE7       29.97F
SCHRIEVER AFB  FAIR      41  -4  15 N8        30.00R
CHEYENNE MTN   FAIR      44   2  17 CALM      29.95F
ELLICOTT       NOT AVBL
FALCON         FAIR      37  -3  17 NW9       30.02R
FORT CARSON    FAIR      37  10  32 N5        29.96F
LIMON          FAIR      18  14  84 N6        29.97R WCI  10
MONUMENT HILL  FAIR      34   9  35 W12       30.02S WCI  25
CANON CITY     FAIR      45   7  21 W17       29.99F
WALSENBURG     FAIR      46   3  17 W18       30.05R
TRINIDAD       FAIR      34  14  43 NW8       30.01F WCI  27
$$

COZ042>045-048>051-090-091-200700-
...NORTHEAST COLORADO...

CITY           SKY/WX    TMP DP  RH WIND       PRES   REMARKS
GREELEY ARPT   FAIR      25  18  74 NW3       29.92F
AKRON          FAIR      39   9  29 W13       29.91F
BURLINGTON     FAIR      28  15  58 W9        29.91F WCI  19
WRAY           NOT AVBL
YUMA           FAIR      32  18  55 W9        29.89F WCI  24
STERLING       FAIR      27  19  74 SW10      29.90F WCI  17
HOLYOKE        FAIR      34  18  51 W10       29.86F WCI  26
FORT MORGAN    FAIR      33  14  45 W8        29.91F WCI  26
$$

COZ086-089-092>099-200700-
...SOUTHEAST COLORADO...

CITY           SKY/WX    TMP DP  RH WIND       PRES   REMARKS
PUEBLO         FAIR      40  12  32 W6        29.95F
LA JUNTA       FAIR      37  18  46 W10       29.94F
LAMAR          FAIR      35  17  47 SW12      29.91F WCI  27
SPRINGFIELD      N/A     29  16  58 W6        29.95F WCI  23
$$




USA.gov is the U.S. government's official web portal to all federal, state and local government web resources and services.